Regional Weather Roundup
Issued by NWS Sioux Falls, SD

Home | Current Version | Previous Version | Text Only | Print | Product List | Glossary Off
Versions: 1 2 3 4 5 6 7 8 9 10 11 12 13 14 15 16 17 18 19 20 21 22 23 24 25 26 27 28 29 30 31 32 33 34 35 36 37 38 39 40 41 42 43 44 45 46 47 48 49 50

000
ASUS43 KFSD 240910
RWRFSD

WEATHER ROUNDUP FOR SE SOUTH DAKOTA/SW MINNESOTA/NW IOWA
NATIONAL WEATHER SERVICE SIOUX FALLS SD
300 AM CST SAT FEB 24 2018

NOTE: "FAIR" INDICATES FEW OR NO CLOUDS BELOW 12,000 FEET WITH NO
SIGNIFICANT WEATHER AND OR OBSTRUCTIONS TO VISIBILITY.


SDZ038>040-050-052>070-241000-
SOUTHEAST SOUTH DAKOTA

CITY           SKY/WX    TMP DP  RH WIND       PRES   REMARKS
BROOKINGS      FOG        4   0  83 SE5       30.13F VSB 1/2 WCI  -5
CHAMBERLAIN    CLOUDY     7   4  91 CALM      30.10F
HURON          FOG       -1  -3  91 SE3       30.14F VSB 1
MADISON        FOG        1   1 100 E6        30.11F VSB<1/4 WCI -10
MITCHELL       CLOUDY     2  -1  88 CALM      30.15F FOG
SIOUX FALLS    FOG       14  12  92 E7        30.14F VSB 1/2 WCI   4
WINNER         FAIR      16  11  80 S7        30.05F WCI   6
YANKTON        SNOW      15  13  91 E9        30.15F VSB 1/2 WCI   3
$$

MNZ071-072-080-081-089-090-097-098-241000-
SOUTHWEST MINNESOTA

CITY           SKY/WX    TMP DP  RH WIND       PRES   REMARKS
FAIRMONT       FOG        7   4  87 CALM      30.21F VSB 1/4
JACKSON        SNOW       9   5  85 N3        30.16F VSB 1/4
LUVERNE        FOG       14  10  85 E3        30.16F VSB 1/2
MARSHALL       FOG       -1  -5  82 S3        30.20F VSB 1/2
MONTEVIDEO     CLOUDY    -6  -9  84 CALM      30.21F FOG
PIPESTONE      FOG        7   3  85 CALM      30.12F VSB 1/4
REDWOOD FALLS  FOG        0  -1  96 CALM      30.21F VSB 1/4
TRACY          CLOUDY     9   7  91 CALM      30.17F FOG
WORTHINGTON    SNOW      12  10  92 NE8       30.16F VSB 1/4 WCI   0
$$

IAZ001>003-012>014-020>022-031-032-NEZ013-014-SDZ071-241000-
NORTHWEST IOWA

CITY           SKY/WX    TMP DP  RH WIND       PRES   REMARKS
CHEROKEE       CLOUDY    19  19 100 E7        30.16F WCI   9
DENISON        CLOUDY    21  21 100 E12G17    30.16F WCI   9
ESTHERVILLE    FOG        9   7  92 CALM      30.18F VSB 1/4
LE MARS        FOG       19  19 100 E6        30.16F VSB 1   WCI  11
ORANGE CITY    FOG       16  16 100 E3        30.15F VSB 1/2
SHELDON        FOG       14  14 100 E8        30.15F VSB 1/4 WCI   3
SIOUX CITY     CLOUDY    20  19  96 E7        30.15F WCI  11
SPENCER        HAZE      18  13  80 E5        30.18F VSB 1/2 WCI  11
STORM LAKE     FOG       16  16 100 NE10      30.15F VSB 1/4 WCI   3
$$

ABBREVIATIONS USED IN REMARKS
   TC - TEMPERATURE IN CELSIUS
  WCI - WIND CHILL INDEX
   HX - HEAT INDEX
  VSB - VISIBILITY




USA.gov is the U.S. government's official web portal to all federal, state and local government web resources and services.